Home   Weather   Landau in der Pfalz   Past weeks

Flag for Germany Past Weather in Landau in der Pfalz, Rhineland-Palatinate, Germany — Yesterday and Last 2 Weeks

Now
45 °F

Light rain. Broken clouds.


Feels Like: 38 °F
Forecast: 40 / 47 °F
Wind: 13 mph from Southwest

Location: Karlsruhe - Baden Wurttemberg

Current Time: Feb 28, 2017 at 3:50:47 pm

Latest Report: Feb 28, 2017 at 3:20 pm


Visibility: N/A

Pressure: 29.33 "Hg

Humidity: 87%

Dew Point: 41 °F

Location of Landau in der PfalzLocation

Past Weather in Landau in der Pfalz — Graph

°F

Landau in der Pfalz Temperature Yesterday

Maximum temperature yesterday: 63 °F (at 3:50 pm)
Minimum temperature yesterday: 45 °F (at 4:20 am)
Average temperature yesterday: 54 °F

High & Low Weather Summary for the Past Weeks

 TemperatureHumidityPressure
High66 °F (Feb 23, 2:20 pm)100% (Feb 14, 4:50 am)30.60 "Hg (Feb 14, 4:50 am)
Low23 °F (Feb 14, 6:50 am)22% (Feb 23, 2:50 pm)29.33 "Hg (Feb 28, 1:50 pm)
Average45 °F78%30.12 "Hg
* Reported Feb 13 2:20 pm — Feb 28 2:20 pm, Landau in der Pfalz, Weather by CustomWeather, © 2017

Note: Actual official high and low records may vary slightly from our data, if they occured in-between our weather recording intervals... More about our weather records

Advertising

Landau in der Pfalz Weather History for the Previous 24 Hours

Scroll right to see more
 ConditionsComfort  
Time TempWeatherWind HumidityBarometerVisibility
2:20 pm
Tue, Feb 28
45 °FLight rain. Partly sunny.7 mph87%29.33 "Hg5 mi
1:50 pm43 °FLight rain. Broken clouds.9 mph87%29.33 "Hg5 mi
1:20 pm43 °FScattered showers. Partly sunny.10 mph87%29.36 "HgN/A
12:50 pm43 °FSprinkles. Partly sunny.13 mph87%29.39 "HgN/A
12:20 pm43 °FSprinkles. Partly sunny.17 mph81%29.42 "Hg6 mi
12:02 pm46 °FSprinkles. Partly sunny.16 mph66%29.42 "HgN/A
11:20 am46 °FBroken clouds.14 mph71%29.47 "HgN/A
10:50 am46 °FScattered clouds.16 mph66%29.47 "HgN/A
10:20 am45 °FScattered clouds.18 mph76%29.50 "HgN/A
9:50 am43 °FScattered clouds.15 mph81%29.50 "HgN/A
9:20 am43 °FScattered clouds.14 mph81%29.53 "HgN/A
8:50 am41 °FPartly sunny.14 mph81%29.53 "HgN/A
8:20 am41 °FPartly sunny.15 mph81%29.53 "HgN/A
7:50 am41 °FPartly sunny.15 mph81%29.53 "HgN/A
7:20 am39 °FBroken clouds.12 mph87%29.50 "HgN/A
6:50 am41 °FPassing clouds.18 mph76%29.50 "HgN/A
6:20 am41 °FPassing clouds.22 mph81%29.50 "HgN/A
5:50 am41 °FPassing clouds.20 mph81%29.50 "HgN/A
5:20 am41 °FPassing clouds.17 mph87%29.50 "HgN/A
4:50 am41 °FPassing clouds.16 mph87%29.50 "HgN/A
11:50 pm
Mon, Feb 27
50 °FLight rain. Passing clouds.23 mph76%29.47 "Hg6 mi
11:20 pm50 °FLight rain. Passing clouds.16 mph76%29.47 "HgN/A
10:50 pm48 °FLight rain. Passing clouds.21 mph82%29.47 "Hg6 mi
10:20 pm46 °FRain. Passing clouds.17 mph87%29.50 "Hg4 mi
9:50 pm48 °FRain. Passing clouds.24 mph82%29.50 "Hg4 mi
9:20 pm59 °FClear.22 mph45%29.42 "Hg10 mi
8:50 pm61 °FClear.22 mph42%29.45 "Hg10 mi
8:20 pm61 °FClear.20 mph42%29.45 "Hg10 mi
7:50 pm59 °FClear.16 mph48%29.45 "Hg10 mi
7:20 pm59 °FClear.13 mph48%29.47 "Hg10 mi
6:20 pm55 °FClear.8 mph51%29.50 "Hg10 mi
5:50 pm57 °FPassing clouds.9 mph48%29.50 "HgN/A
5:20 pm59 °FSunny.12 mph42%29.53 "Hg10 mi
4:50 pm61 °FPassing clouds.16 mph39%29.56 "HgN/A
4:20 pm61 °FSunny.22 mph42%29.53 "Hg10 mi
3:50 pm63 °FSunny.18 mph39%29.56 "Hg10 mi
3:20 pm61 °FSunny.17 mph45%29.56 "Hg10 mi
Weather by CustomWeather, © 2017

See weather overviewHow to use our weather pages